Satellite: NOAA-15
Catalog number: 25338
Epoch time: 06347.75513818
Element set: 0789
Inclination: 098.5237 deg
RA of node: 344.7512 deg
Eccentricity: 0.0010168
Arg of perigee: 206.8043 deg
Mean anomaly: 153.2630 deg
Mean motion: 14.24616458 rev/day
Decay rate: 1.12e-06 rev/day^2
Epoch rev: 44628
Checksum: 307
Satellite: RESURS
Catalog number: 25394
Epoch time: 06347.79665942
Element set: 524
Inclination: 098.4701 deg
RA of node: 044.4073 deg
Eccentricity: 0.0002165
Arg of perigee: 031.3410 deg
Mean anomaly: 328.7897 deg
Mean motion: 14.24121000 rev/day
Decay rate: 2.0e-07 rev/day^2
Epoch rev: 43796
Checksum: 279
Satellite: FENGYUN1
Catalog number: 25730
Epoch time: 06347.70767014
Element set: 0904
Inclination: 098.6429 deg
RA of node: 333.6017 deg
Eccentricity: 0.0014561
Arg of perigee: 352.8441 deg
Mean anomaly: 007.2537 deg
Mean motion: 14.11819380 rev/day
Decay rate: -7.6e-07 rev/day^2
Epoch rev: 39134
Checksum: 292
Satellite: OKEAN-0
Catalog number: 25860
Epoch time: 06347.56655837
Element set: 0928
Inclination: 097.7298 deg
RA of node: 353.5164 deg
Eccentricity: 0.0000466
Arg of perigee: 064.7010 deg
Mean anomaly: 295.4230 deg
Mean motion: 14.73413936 rev/day
Decay rate: 1.50e-06 rev/day^2
Epoch rev: 39816
Checksum: 317
Satellite: NOAA-16
Catalog number: 26536
Epoch time: 06347.58886068
Element set: 0185
Inclination: 099.0937 deg
RA of node: 316.5428 deg
Eccentricity: 0.0010392
Arg of perigee: 339.3297 deg
Mean anomaly: 020.7438 deg
Mean motion: 14.12389823 rev/day
Decay rate: -5.0e-07 rev/day^2
Epoch rev: 32090
Checksum: 325
Satellite: NOAA-17
Catalog number: 27453
Epoch time: 06347.65081452
Element set: 0204
Inclination: 098.6037 deg
RA of node: 056.2111 deg
Eccentricity: 0.0010989
Arg of perigee: 273.7802 deg
Mean anomaly: 086.2119 deg
Mean motion: 14.23836615 rev/day
Decay rate: 2.03e-06 rev/day^2
Epoch rev: 23231
Checksum: 283
Satellite: NOAA-18
Catalog number: 28654
Epoch time: 06348.32286655
Element set: 758
Inclination: 098.8100 deg
RA of node: 287.9049 deg
Eccentricity: 0.0015074
Arg of perigee: 072.2787 deg
Mean anomaly: 288.0036 deg
Mean motion: 14.11020041 rev/day
Decay rate: 4.29e-06 rev/day^2
Epoch rev: 8078
Checksum: 316
/EX
SB KEPS @ AMSAT $ORB06348.M
Orbital Elements 06348.MISC
HR AMSAT ORBITAL ELEMENTS FOR MANNED AND MISCELLANEOUS SATELLITES
FROM WA5QGD FORT WORTH,TX December 14, 2006
Send SUBSCRIBE KEPS/UNSUBSCRIBE KEPS to majordomo at amsat.org only
BID: ORB06348.M
TO ALL RADIO AMATEURS BT
Satellite: HUBBLE
Catalog number: 20580
Epoch time: 06347.26544773
Element set: 0767
Inclination: 028.4692 deg
RA of node: 322.4132 deg
Eccentricity: 0.0003628
Arg of perigee: 281.8494 deg
Mean anomaly: 078.1686 deg
Mean motion: 15.00154929 rev/day
Decay rate: 7.06e-06 rev/day^2
Epoch rev: 71201
Checksum: 301
Satellite: UARS
Catalog number: 21701
Epoch time: 06347.64576683
Element set: 944
Inclination: 056.9758 deg
RA of node: 037.8185 deg
Eccentricity: 0.0097551
Arg of perigee: 190.8747 deg
Mean anomaly: 169.0201 deg
Mean motion: 15.45996978 rev/day
Decay rate: 8.553e-05 rev/day^2
Epoch rev: 83703
Checksum: 360
Satellite: PO-34
Catalog number: 25520
Epoch time: 06347.97482086
Element set: 0632
Inclination: 028.4609 deg
RA of node: 268.2592 deg
Eccentricity: 0.0004968
Arg of perigee: 038.9079 deg
Mean anomaly: 321.1863 deg
Mean motion: 15.16875301 rev/day
Decay rate: 8.85e-06 rev/day^2
Epoch rev: 44937
Checksum: 341
Satellite: ISS
Catalog number: 25544
Epoch time: 06349.02101644
Element set: 260
Inclination: 051.6361 deg
RA of node: 335.2064 deg
Eccentricity: 0.0023640
Arg of perigee: 337.1016 deg
Mean anomaly: 119.2940 deg
Mean motion: 15.75897625 rev/day
Decay rate: 2.2969e-04 rev/day^2
Epoch rev: 46169
Checksum: 291
Satellite: OO-38
Catalog number: 26063
Epoch time: 06348.64210280
Element set: 790
Inclination: 100.2101 deg
RA of node: 312.3258 deg
Eccentricity: 0.0036738
Arg of perigee: 319.6560 deg
Mean anomaly: 040.1890 deg
Mean motion: 14.35789164 rev/day
Decay rate: 2.3e-07 rev/day^2
Epoch rev: 36056
Checksum: 280
Satellite: NO-45
Catalog number: 26932
Epoch time: 06347.96168680
Element set: 0494
Inclination: 067.0514 deg
RA of node: 264.3480 deg
Eccentricity: 0.0003615
Arg of perigee: 247.7696 deg
Mean anomaly: 112.3020 deg
Mean motion: 14.29543536 rev/day
Decay rate: -1.5e-07 rev/day^2
Epoch rev: 27166
Checksum: 309
Satellite: UWE-1
Catalog number: 28892
Epoch time: 06348.85802681
Element set: 628
Inclination: 098.1463 deg
RA of node: 243.9595 deg
Eccentricity: 0.0017127
Arg of perigee: 331.1410 deg
Mean anomaly: 028.8905 deg
Mean motion: 14.59440744 rev/day
Decay rate: 5.08e-06 rev/day^2
Epoch rev: 6032
Checksum: 312
Satellite: CO-58
Catalog number: 28895
Epoch time: 06347.40318668
Element set: 0609
Inclination: 098.1498 deg
RA of node: 242.6730 deg
Eccentricity: 0.0017397
Arg of perigee: 335.5007 deg
Mean anomaly: 024.5350 deg
Mean motion: 14.59487152 rev/day
Decay rate: 1.54e-06 rev/day^2
Epoch rev: 05999
Checksum: 346
Satellite: NCUBE2
Catalog number: 28897
Epoch time: 06347.22418853
Element set: 0158
Inclination: 098.1481 deg
RA of node: 242.4703 deg
Eccentricity: 0.0017193
Arg of perigee: 337.9442 deg
Mean anomaly: 022.1015 deg
Mean motion: 14.59645780 rev/day
Decay rate: 2.80e-06 rev/day^2
Epoch rev: 05224
Checksum: 301
/EX
More information about the Keps
mailing list